EJU63FY EGPH-LIML

Flight info

Callsign EJU63FY
Flight time 2h 11m
Altitude 25000
Route TLA Y96 OTBUN/N0433F370 DCT ERKIT N110 DOLAS DCT NAVPI DCT UMUPU DCT TUSUK DCT KRH/N0435F380 DCT NATOR/N0431F370 DCT TRA DCT RIPUS DCT GERSA DCT SOSON DCT ODINA
Aircraft A319/M-SDE2E3FGIJ1RWXYZ/LB1

Departure

Time 2026-04-26 04:35
Airport Edinburgh Airport (EGPH)

Arrival

Time 2026-04-26 06:47
Airport Milano Linate Airport (LIML)
Time Latitude Longitude Altitude Speed Heading
2026-04-26 04:10 55.94612 -3.36625 117 ft 0 kts 89°
2026-04-26 04:27 55.94612 -3.36631 116 ft 3 kts 89°
2026-04-26 04:28 55.94611 -3.36679 115 ft 4 kts 80°
2026-04-26 04:28 55.94603 -3.36721 112 ft 4 kts 42°
2026-04-26 04:28 55.94591 -3.36733 113 ft 0 kts 359°
2026-04-26 04:30 55.94604 -3.36733 112 ft 4 kts 359°
2026-04-26 04:30 55.94648 -3.36734 116 ft 7 kts 359°
2026-04-26 04:30 55.94705 -3.36736 116 ft 9 kts 359°
2026-04-26 04:31 55.94774 -3.36767 114 ft 11 kts 338°
2026-04-26 04:31 55.94856 -3.36778 116 ft 12 kts 358°
2026-04-26 04:31 55.94924 -3.36851 116 ft 11 kts 296°
2026-04-26 04:31 55.94897 -3.36981 115 ft 12 kts 238°
2026-04-26 04:32 55.94850 -3.37119 113 ft 14 kts 239°
2026-04-26 04:32 55.94798 -3.37273 115 ft 15 kts 239°
2026-04-26 04:32 55.94741 -3.37440 114 ft 16 kts 239°
2026-04-26 04:32 55.94680 -3.37622 113 ft 18 kts 239°
2026-04-26 04:33 55.94613 -3.37818 115 ft 19 kts 239°
2026-04-26 04:33 55.94542 -3.38028 113 ft 20 kts 239°
2026-04-26 04:33 55.94467 -3.38251 115 ft 22 kts 239°
2026-04-26 04:33 55.94387 -3.38485 115 ft 22 kts 239°
2026-04-26 04:34 55.94316 -3.38695 113 ft 19 kts 238°
2026-04-26 04:34 55.94290 -3.38865 116 ft 13 kts 308°
2026-04-26 04:34 55.94370 -3.38955 115 ft 13 kts 330°
2026-04-26 04:34 55.94439 -3.38904 114 ft 12 kts 58°
2026-04-26 04:35 55.94530 -3.38634 111 ft 58 kts 59°
2026-04-26 04:35 55.94871 -3.37628 114 ft 129 kts 59°
2026-04-26 04:35 55.95400 -3.36061 469 ft 151 kts 59°
2026-04-26 04:35 55.95957 -3.34473 1220 ft 151 kts 54°
2026-04-26 04:36 55.96734 -3.33101 1744 ft 167 kts 44°
2026-04-26 04:36 55.97656 -3.31616 2158 ft 190 kts 44°
2026-04-26 04:36 55.98703 -3.29930 2557 ft 215 kts 44°
2026-04-26 04:36 55.99879 -3.28036 3066 ft 240 kts 43°
2026-04-26 04:37 56.01176 -3.25951 3675 ft 260 kts 42°
2026-04-26 04:37 56.02542 -3.23755 4567 ft 268 kts 41°
2026-04-26 04:37 56.03942 -3.21494 5511 ft 274 kts 42°
2026-04-26 04:37 56.05022 -3.18661 6402 ft 282 kts 72°
2026-04-26 04:38 56.05161 -3.15154 7327 ft 286 kts 95°
2026-04-26 04:38 56.04896 -3.11621 8264 ft 289 kts 107°
2026-04-26 04:38 56.03976 -3.08437 9154 ft 291 kts 131°
2026-04-26 04:38 56.02484 -3.06006 10088 ft 292 kts 146°
2026-04-26 04:39 56.00818 -3.03814 10679 ft 308 kts 147°
2026-04-26 04:39 55.98890 -3.01909 11105 ft 324 kts 157°
2026-04-26 04:39 55.96836 -3.00159 11846 ft 330 kts 158°
2026-04-26 04:39 55.94746 -2.98405 12661 ft 334 kts 158°
2026-04-26 04:40 55.92630 -2.96640 13505 ft 338 kts 158°
2026-04-26 04:40 55.90492 -2.94857 14298 ft 341 kts 158°
2026-04-26 04:40 55.88332 -2.93047 15006 ft 345 kts 158°
2026-04-26 04:40 55.86149 -2.91214 15707 ft 349 kts 158°
2026-04-26 04:41 55.83942 -2.89362 16400 ft 353 kts 158°
2026-04-26 04:41 55.81710 -2.87495 17081 ft 356 kts 158°
2026-04-26 04:41 55.79453 -2.85610 17772 ft 360 kts 158°
2026-04-26 04:41 55.77199 -2.83736 18436 ft 364 kts 158°
2026-04-26 04:42 55.74893 -2.81824 19035 ft 368 kts 158°
2026-04-26 04:42 55.72565 -2.79894 19635 ft 371 kts 158°
2026-04-26 04:42 55.70209 -2.77941 20197 ft 376 kts 157°
2026-04-26 04:42 55.67827 -2.75966 20793 ft 379 kts 157°
2026-04-26 04:43 55.65430 -2.73978 21401 ft 382 kts 157°
2026-04-26 04:43 55.63012 -2.71972 22019 ft 385 kts 157°
2026-04-26 04:43 55.60572 -2.69949 22603 ft 389 kts 157°
2026-04-26 04:43 55.58114 -2.67916 23214 ft 392 kts 158°
2026-04-26 04:44 55.55636 -2.65873 23804 ft 395 kts 158°
2026-04-26 04:44 55.53136 -2.63817 24301 ft 398 kts 158°
2026-04-26 04:44 55.50620 -2.61748 24766 ft 401 kts 158°
2026-04-26 04:44 55.48086 -2.59667 25242 ft 403 kts 158°
2026-04-26 04:45 55.45536 -2.57574 25720 ft 405 kts 158°
2026-04-26 04:45 55.42971 -2.55472 26184 ft 408 kts 158°
2026-04-26 04:45 55.40392 -2.53360 26634 ft 410 kts 158°
2026-04-26 04:45 55.37792 -2.51238 27074 ft 413 kts 158°
2026-04-26 04:46 55.35174 -2.49115 27511 ft 416 kts 159°
2026-04-26 04:46 55.32544 -2.46982 27936 ft 418 kts 159°
2026-04-26 04:46 55.29894 -2.44831 28362 ft 421 kts 158°
2026-04-26 04:46 55.27321 -2.42312 28786 ft 428 kts 149°
2026-04-26 04:47 55.24922 -2.39173 29199 ft 432 kts 146°
2026-04-26 04:47 55.22527 -2.35972 29607 ft 434 kts 146°
2026-04-26 04:47 55.20116 -2.32762 30034 ft 437 kts 146°
2026-04-26 04:47 55.17689 -2.29540 30427 ft 439 kts 146°
2026-04-26 04:48 55.12778 -2.23060 31082 ft 445 kts 146°
2026-04-26 04:48 55.10300 -2.19797 31396 ft 448 kts 146°
2026-04-26 04:48 55.07805 -2.16514 31683 ft 451 kts 146°
2026-04-26 04:49 55.05291 -2.13206 31981 ft 454 kts 146°
2026-04-26 04:49 55.02772 -2.09894 32405 ft 453 kts 146°
2026-04-26 04:49 55.00255 -2.06585 32856 ft 453 kts 146°
2026-04-26 04:49 54.97737 -2.03283 33266 ft 452 kts 146°
2026-04-26 04:50 54.95224 -1.99997 33695 ft 452 kts 147°
2026-04-26 04:50 54.92705 -1.96708 34118 ft 452 kts 147°
2026-04-26 04:50 54.90190 -1.93426 34513 ft 452 kts 147°
2026-04-26 04:50 54.87674 -1.90157 34870 ft 452 kts 147°
2026-04-26 04:51 54.85159 -1.86897 35214 ft 451 kts 147°
2026-04-26 04:51 54.82643 -1.83641 35552 ft 451 kts 147°
2026-04-26 04:51 54.80160 -1.80433 35861 ft 451 kts 146°
2026-04-26 04:51 54.77647 -1.77183 36186 ft 451 kts 146°
2026-04-26 04:52 54.75131 -1.73929 36500 ft 451 kts 146°
2026-04-26 04:52 54.72620 -1.70686 36783 ft 451 kts 146°
2026-04-26 04:52 54.70104 -1.67446 37056 ft 451 kts 146°
2026-04-26 04:52 54.67582 -1.64209 37289 ft 452 kts 146°
2026-04-26 04:53 54.62566 -1.57783 37350 ft 446 kts 146°
2026-04-26 04:53 54.57593 -1.51432 37355 ft 444 kts 146°
2026-04-26 04:54 54.52626 -1.45102 37355 ft 444 kts 146°
2026-04-26 04:54 54.47655 -1.38799 37348 ft 444 kts 146°
2026-04-26 04:55 54.42670 -1.32514 37356 ft 445 kts 146°
2026-04-26 04:55 54.37680 -1.26226 37354 ft 445 kts 146°
2026-04-26 04:56 54.32695 -1.19948 37351 ft 445 kts 146°
2026-04-26 04:56 54.27702 -1.13681 37353 ft 445 kts 146°
2026-04-26 04:57 54.22707 -1.07436 37338 ft 445 kts 146°
2026-04-26 04:57 54.17740 -1.01251 37348 ft 445 kts 146°
2026-04-26 04:58 54.12738 -0.95047 37348 ft 444 kts 146°
2026-04-26 04:58 54.07740 -0.88852 37350 ft 444 kts 147°
2026-04-26 04:59 54.02737 -0.82684 37351 ft 444 kts 147°
2026-04-26 04:59 53.97687 -0.76649 37338 ft 443 kts 148°
2026-04-26 05:00 53.92598 -0.70745 37334 ft 443 kts 148°
2026-04-26 05:00 53.87504 -0.64854 37336 ft 444 kts 148°
2026-04-26 05:01 53.82414 -0.58934 37339 ft 444 kts 148°
2026-04-26 05:01 53.77333 -0.53014 37343 ft 443 kts 148°
2026-04-26 05:02 53.72245 -0.47116 37328 ft 443 kts 148°
2026-04-26 05:02 53.67153 -0.41233 37336 ft 444 kts 148°
2026-04-26 05:03 53.62046 -0.35368 37341 ft 444 kts 148°
2026-04-26 05:03 53.57199 -0.28889 37346 ft 448 kts 135°
2026-04-26 05:04 53.53345 -0.20613 37345 ft 450 kts 128°
2026-04-26 05:04 53.49595 -0.12263 37346 ft 451 kts 129°
2026-04-26 05:05 53.45806 -0.03881 37339 ft 451 kts 129°
2026-04-26 05:05 53.42009 0.04497 37346 ft 450 kts 129°
2026-04-26 05:06 53.38222 0.12847 37349 ft 450 kts 129°
2026-04-26 05:06 53.34436 0.21169 37350 ft 449 kts 129°
2026-04-26 05:07 53.30645 0.29456 37351 ft 448 kts 129°
2026-04-26 05:07 53.26846 0.37721 37339 ft 448 kts 129°
2026-04-26 05:08 53.23050 0.45976 37330 ft 448 kts 129°
2026-04-26 05:08 53.19251 0.54233 37348 ft 448 kts 129°
2026-04-26 05:09 53.15477 0.62396 37354 ft 447 kts 129°
2026-04-26 05:09 53.11671 0.70587 37356 ft 447 kts 129°
2026-04-26 05:10 53.07866 0.78752 37358 ft 446 kts 129°
2026-04-26 05:10 53.04054 0.86905 37357 ft 446 kts 129°
2026-04-26 05:11 53.00240 0.95030 37341 ft 446 kts 129°
2026-04-26 05:11 52.97029 1.03822 37349 ft 448 kts 112°
2026-04-26 05:12 52.94861 1.13495 37358 ft 447 kts 111°
2026-04-26 05:12 52.92670 1.23147 37360 ft 447 kts 111°
2026-04-26 05:13 52.90467 1.32774 37361 ft 447 kts 111°
2026-04-26 05:13 52.88267 1.42402 37360 ft 447 kts 111°
2026-04-26 05:14 52.86053 1.52005 37360 ft 447 kts 111°
2026-04-26 05:14 52.83840 1.61595 37365 ft 446 kts 111°
2026-04-26 05:15 52.81629 1.71176 37368 ft 446 kts 112°
2026-04-26 05:15 52.79423 1.80664 37367 ft 445 kts 112°
2026-04-26 05:16 52.77196 1.90200 37367 ft 445 kts 112°
2026-04-26 05:16 52.74957 1.99724 37366 ft 445 kts 112°
2026-04-26 05:17 52.72898 2.08453 37366 ft 444 kts 112°
2026-04-26 05:17 52.70708 2.17697 37368 ft 444 kts 112°
2026-04-26 05:18 52.68856 2.25480 37366 ft 444 kts 112°
2026-04-26 05:18 52.66598 2.34939 37365 ft 443 kts 112°
2026-04-26 05:19 52.64333 2.44382 37361 ft 443 kts 112°
2026-04-26 05:19 52.62061 2.53812 37365 ft 443 kts 112°
2026-04-26 05:20 52.59787 2.63230 37363 ft 443 kts 112°
2026-04-26 05:20 52.57502 2.72624 37362 ft 442 kts 112°
2026-04-26 05:21 52.55200 2.81995 37361 ft 442 kts 115°
2026-04-26 05:21 52.52105 2.90633 37358 ft 440 kts 124°
2026-04-26 05:22 52.48762 2.99041 37355 ft 440 kts 124°
2026-04-26 05:22 52.45432 3.07400 37348 ft 440 kts 124°
2026-04-26 05:23 52.42076 3.15785 37347 ft 440 kts 124°
2026-04-26 05:23 52.38745 3.24098 37348 ft 440 kts 124°
2026-04-26 05:24 52.35383 3.32453 37349 ft 439 kts 124°
2026-04-26 05:24 52.32014 3.40779 37346 ft 439 kts 124°
2026-04-26 05:25 52.28637 3.49092 37344 ft 439 kts 124°
2026-04-26 05:25 52.25262 3.57400 37349 ft 439 kts 124°
2026-04-26 05:26 52.21888 3.65690 37342 ft 438 kts 124°
2026-04-26 05:26 52.18506 3.73967 37340 ft 438 kts 124°
2026-04-26 05:27 52.15115 3.82220 37344 ft 438 kts 125°
2026-04-26 05:27 52.11719 3.90455 37341 ft 438 kts 125°
2026-04-26 05:28 52.08326 3.98683 37345 ft 438 kts 125°
2026-04-26 05:28 52.04948 4.06840 37349 ft 438 kts 125°
2026-04-26 05:29 52.01526 4.15085 37341 ft 437 kts 125°
2026-04-26 05:29 51.98115 4.23267 37341 ft 438 kts 125°
2026-04-26 05:30 51.94714 4.31370 37330 ft 438 kts 125°
2026-04-26 05:30 51.91287 4.39522 37333 ft 438 kts 125°
2026-04-26 05:31 51.87861 4.47665 37336 ft 438 kts 125°
2026-04-26 05:31 51.84424 4.55799 37335 ft 438 kts 125°
2026-04-26 05:32 51.80986 4.63915 37331 ft 438 kts 125°
2026-04-26 05:32 51.77540 4.72022 37329 ft 437 kts 125°
2026-04-26 05:33 51.74093 4.80106 37331 ft 437 kts 125°
2026-04-26 05:33 51.70642 4.88185 37329 ft 437 kts 126°
2026-04-26 05:34 51.67188 4.96243 37332 ft 437 kts 126°
2026-04-26 05:34 51.63730 5.04277 37332 ft 437 kts 126°
2026-04-26 05:35 51.60259 5.12294 37330 ft 436 kts 126°
2026-04-26 05:35 51.56796 5.20308 37328 ft 436 kts 126°
2026-04-26 05:36 51.53319 5.28305 37326 ft 436 kts 126°
2026-04-26 05:36 51.49838 5.36281 37337 ft 436 kts 126°
2026-04-26 05:37 51.46362 5.44235 37338 ft 435 kts 126°
2026-04-26 05:37 51.42906 5.52113 37326 ft 435 kts 126°
2026-04-26 05:38 51.39421 5.60037 37318 ft 435 kts 126°
2026-04-26 05:38 51.35931 5.67945 37301 ft 435 kts 126°
2026-04-26 05:39 51.32436 5.75842 37301 ft 435 kts 126°
2026-04-26 05:39 51.28937 5.83727 37306 ft 435 kts 126°
2026-04-26 05:40 51.25434 5.91596 37301 ft 434 kts 126°
2026-04-26 05:40 51.21931 5.99449 37299 ft 434 kts 126°
2026-04-26 05:41 51.18424 6.07287 37300 ft 434 kts 127°
2026-04-26 05:41 51.14903 6.15102 37281 ft 434 kts 127°
2026-04-26 05:42 51.11382 6.22922 37286 ft 434 kts 127°
2026-04-26 05:42 51.07855 6.30724 37312 ft 434 kts 127°
2026-04-26 05:43 51.04321 6.38509 37310 ft 434 kts 127°
2026-04-26 05:43 51.00812 6.46239 37308 ft 434 kts 127°
2026-04-26 05:44 50.97278 6.54008 37304 ft 434 kts 127°
2026-04-26 05:44 50.93733 6.61762 37304 ft 434 kts 127°
2026-04-26 05:45 50.90180 6.69496 37311 ft 434 kts 127°
2026-04-26 05:45 50.86629 6.77213 37312 ft 433 kts 127°
2026-04-26 05:46 50.83079 6.84913 37308 ft 433 kts 127°
2026-04-26 05:46 50.79519 6.92591 37303 ft 433 kts 127°
2026-04-26 05:47 50.75957 7.00251 37301 ft 432 kts 127°
2026-04-26 05:47 50.72397 7.07899 37301 ft 432 kts 127°
2026-04-26 05:48 50.68833 7.15543 37301 ft 432 kts 127°
2026-04-26 05:48 50.65257 7.23167 37285 ft 432 kts 128°
2026-04-26 05:49 50.59882 7.34575 37278 ft 432 kts 128°
2026-04-26 05:50 50.56301 7.42178 37278 ft 432 kts 128°
2026-04-26 05:50 50.52330 7.49246 37279 ft 431 kts 134°
2026-04-26 05:51 50.48292 7.56213 37279 ft 431 kts 134°
2026-04-26 05:51 50.44256 7.63174 37275 ft 431 kts 134°
2026-04-26 05:52 50.40214 7.70112 37280 ft 431 kts 134°
2026-04-26 05:52 50.36170 7.77043 37274 ft 431 kts 134°
2026-04-26 05:53 50.32155 7.83899 37269 ft 430 kts 134°
2026-04-26 05:53 50.28104 7.90794 37263 ft 430 kts 134°
2026-04-26 05:54 50.24052 7.97673 37260 ft 430 kts 134°
2026-04-26 05:54 50.19996 8.04537 37258 ft 430 kts 134°
2026-04-26 05:55 50.15865 8.11293 37259 ft 429 kts 141°
2026-04-26 05:55 50.10845 8.16153 37252 ft 424 kts 160°
2026-04-26 05:56 50.05184 8.18618 37250 ft 423 kts 168°
2026-04-26 05:56 49.99471 8.20812 37253 ft 423 kts 168°
2026-04-26 05:57 49.93752 8.23009 37254 ft 424 kts 168°
2026-04-26 05:57 49.88025 8.25206 37240 ft 424 kts 168°
2026-04-26 05:58 49.82290 8.27386 37244 ft 425 kts 168°
2026-04-26 05:58 49.76548 8.29568 37249 ft 425 kts 168°
2026-04-26 05:59 49.70803 8.31748 37253 ft 425 kts 168°
2026-04-26 05:59 49.65057 8.33921 37236 ft 425 kts 168°
2026-04-26 06:00 49.59310 8.36088 37235 ft 426 kts 168°
2026-04-26 06:00 49.53550 8.38259 37239 ft 426 kts 168°
2026-04-26 06:01 49.47787 8.40412 37244 ft 426 kts 168°
2026-04-26 06:01 49.42063 8.42553 37226 ft 426 kts 169°
2026-04-26 06:02 49.36301 8.44706 37263 ft 426 kts 169°
2026-04-26 06:02 49.30541 8.46860 37253 ft 426 kts 169°
2026-04-26 06:03 49.24778 8.49004 37245 ft 426 kts 169°
2026-04-26 06:03 49.19015 8.51134 37209 ft 426 kts 169°
2026-04-26 06:04 49.13248 8.53268 37212 ft 426 kts 169°
2026-04-26 06:04 49.07481 8.55403 37217 ft 427 kts 169°
2026-04-26 06:05 49.01696 8.57430 37215 ft 425 kts 175°
2026-04-26 06:05 48.95852 8.57303 37210 ft 418 kts 193°
2026-04-26 06:06 48.90175 8.55430 37214 ft 418 kts 195°
2026-04-26 06:06 48.84482 8.53595 37218 ft 419 kts 194°
2026-04-26 06:07 48.78779 8.51774 37224 ft 419 kts 194°
2026-04-26 06:07 48.73114 8.49957 37214 ft 419 kts 194°
2026-04-26 06:08 48.67412 8.48126 37220 ft 419 kts 194°
2026-04-26 06:08 48.61702 8.46300 37225 ft 419 kts 194°
2026-04-26 06:09 48.55997 8.44477 37225 ft 419 kts 194°
2026-04-26 06:09 48.51222 8.42945 37231 ft 419 kts 194°
2026-04-26 06:10 48.45520 8.41127 37224 ft 419 kts 194°
2026-04-26 06:10 48.39821 8.39319 37230 ft 419 kts 194°
2026-04-26 06:11 48.34156 8.37527 37223 ft 419 kts 194°
2026-04-26 06:11 48.28454 8.35730 37227 ft 418 kts 194°
2026-04-26 06:12 48.22760 8.33940 37222 ft 418 kts 194°
2026-04-26 06:12 48.17011 8.32569 37222 ft 422 kts 183°
2026-04-26 06:13 48.11152 8.33550 37228 ft 425 kts 173°
2026-04-26 06:13 48.05313 8.34969 37229 ft 425 kts 174°
2026-04-26 06:14 47.99473 8.36374 37223 ft 425 kts 173°
2026-04-26 06:14 47.93632 8.37781 37230 ft 425 kts 173°
2026-04-26 06:15 47.87795 8.39193 37224 ft 425 kts 174°
2026-04-26 06:15 47.81963 8.40591 37223 ft 424 kts 174°
2026-04-26 06:16 47.76138 8.41992 37228 ft 424 kts 174°
2026-04-26 06:16 47.70319 8.43371 37224 ft 424 kts 174°
2026-04-26 06:17 47.64487 8.44531 37227 ft 422 kts 177°
2026-04-26 06:17 47.58638 8.45326 37234 ft 422 kts 178°
2026-04-26 06:18 47.52831 8.46070 37238 ft 422 kts 178°
2026-04-26 06:18 47.46989 8.46901 37233 ft 422 kts 177°
2026-04-26 06:19 47.41145 8.47771 37237 ft 422 kts 177°
2026-04-26 06:19 47.35302 8.48647 37236 ft 422 kts 177°
2026-04-26 06:20 47.29459 8.49503 37231 ft 422 kts 177°
2026-04-26 06:20 47.23612 8.50347 37220 ft 422 kts 177°
2026-04-26 06:21 47.17771 8.51193 37216 ft 422 kts 177°
2026-04-26 06:21 47.11927 8.52048 37209 ft 422 kts 177°
2026-04-26 06:22 47.06083 8.52900 37187 ft 422 kts 177°
2026-04-26 06:22 47.00241 8.53741 37190 ft 422 kts 177°
2026-04-26 06:23 46.94405 8.54585 37183 ft 422 kts 177°
2026-04-26 06:23 46.88604 8.55422 37177 ft 421 kts 177°
2026-04-26 06:24 46.82768 8.56260 37178 ft 421 kts 177°
2026-04-26 06:24 46.76929 8.57098 37166 ft 422 kts 177°
2026-04-26 06:24 46.73997 8.57512 36920 ft 425 kts 177°
2026-04-26 06:25 46.71011 8.57930 35594 ft 440 kts 177°
2026-04-26 06:25 46.67919 8.58361 34639 ft 448 kts 176°
2026-04-26 06:25 46.64850 8.58798 34227 ft 441 kts 176°
2026-04-26 06:25 46.61802 8.59235 33606 ft 438 kts 176°
2026-04-26 06:26 46.58779 8.59671 33042 ft 434 kts 176°
2026-04-26 06:26 46.55784 8.60103 32450 ft 432 kts 176°
2026-04-26 06:26 46.52804 8.60532 31878 ft 429 kts 176°
2026-04-26 06:26 46.49846 8.60954 31336 ft 426 kts 176°
2026-04-26 06:27 46.46905 8.61370 30770 ft 423 kts 176°
2026-04-26 06:27 46.43983 8.61781 30224 ft 421 kts 176°
2026-04-26 06:27 46.41078 8.62189 29634 ft 417 kts 176°
2026-04-26 06:27 46.38205 8.62591 29087 ft 413 kts 176°
2026-04-26 06:28 46.35359 8.62991 28548 ft 409 kts 176°
2026-04-26 06:28 46.32539 8.63390 28037 ft 406 kts 176°
2026-04-26 06:28 46.29741 8.63784 27530 ft 402 kts 176°
2026-04-26 06:28 46.26964 8.64174 27034 ft 400 kts 176°
2026-04-26 06:29 46.24204 8.64564 26543 ft 397 kts 176°
2026-04-26 06:29 46.21497 8.64950 26079 ft 395 kts 176°
2026-04-26 06:29 46.18769 8.65335 25632 ft 392 kts 176°
2026-04-26 06:29 46.16064 8.65712 25181 ft 389 kts 176°
2026-04-26 06:30 46.13377 8.66091 24740 ft 387 kts 175°
2026-04-26 06:30 46.10741 8.66850 24285 ft 387 kts 165°
2026-04-26 06:30 46.08233 8.68235 23851 ft 386 kts 155°
2026-04-26 06:30 46.05866 8.70056 23344 ft 385 kts 153°
2026-04-26 06:31 46.03523 8.71898 22871 ft 382 kts 152°
2026-04-26 06:31 46.01208 8.73719 22423 ft 378 kts 152°
2026-04-26 06:31 45.98909 8.75521 21984 ft 375 kts 152°
2026-04-26 06:31 45.96623 8.77311 21523 ft 373 kts 152°
2026-04-26 06:32 45.94352 8.79087 21061 ft 371 kts 152°
2026-04-26 06:32 45.92093 8.80850 20606 ft 369 kts 152°
2026-04-26 06:32 45.89843 8.82604 20140 ft 368 kts 152°
2026-04-26 06:32 45.87598 8.84351 19682 ft 366 kts 152°
2026-04-26 06:33 45.85358 8.86085 19219 ft 365 kts 152°
2026-04-26 06:33 45.83131 8.87809 18880 ft 361 kts 151°
2026-04-26 06:33 45.80953 8.89493 18687 ft 352 kts 151°
2026-04-26 06:33 45.78818 8.91152 18440 ft 347 kts 151°
2026-04-26 06:34 45.76687 8.92808 17938 ft 348 kts 151°
2026-04-26 06:34 45.74571 8.94449 17596 ft 344 kts 151°
2026-04-26 06:34 45.72470 8.96074 17183 ft 342 kts 151°
2026-04-26 06:34 45.70382 8.97686 16803 ft 340 kts 151°
2026-04-26 06:35 45.68305 8.99287 16448 ft 338 kts 151°
2026-04-26 06:35 45.66248 9.00872 16061 ft 334 kts 151°
2026-04-26 06:35 45.64236 9.02423 15613 ft 331 kts 151°
2026-04-26 06:35 45.62215 9.03977 15140 ft 329 kts 151°
2026-04-26 06:36 45.60211 9.05517 14624 ft 325 kts 151°
2026-04-26 06:36 45.58203 9.07058 14114 ft 322 kts 151°
2026-04-26 06:36 45.56264 9.08546 13603 ft 319 kts 151°
2026-04-26 06:36 45.54325 9.10031 13232 ft 310 kts 151°
2026-04-26 06:37 45.52439 9.11472 12711 ft 307 kts 151°
2026-04-26 06:37 45.50464 9.12587 12194 ft 305 kts 166°
2026-04-26 06:37 45.48365 9.12980 11758 ft 304 kts 175°
2026-04-26 06:37 45.46254 9.13211 11340 ft 305 kts 175°
2026-04-26 06:38 45.44138 9.13448 10926 ft 305 kts 175°
2026-04-26 06:38 45.42019 9.13690 10534 ft 305 kts 175°
2026-04-26 06:38 45.39906 9.13930 10152 ft 304 kts 175°
2026-04-26 06:38 45.37801 9.14166 9749 ft 303 kts 175°
2026-04-26 06:39 45.35707 9.14400 9325 ft 300 kts 175°
2026-04-26 06:39 45.33654 9.14627 8917 ft 292 kts 175°
2026-04-26 06:39 45.31659 9.14851 8503 ft 284 kts 175°
2026-04-26 06:39 45.29716 9.15070 8113 ft 276 kts 175°
2026-04-26 06:40 45.27828 9.15282 7738 ft 269 kts 175°
2026-04-26 06:40 45.25989 9.15488 7365 ft 261 kts 175°
2026-04-26 06:40 45.24220 9.15860 6999 ft 253 kts 157°
2026-04-26 06:40 45.22865 9.17312 6644 ft 242 kts 122°
2026-04-26 06:41 45.22327 9.19488 6250 ft 232 kts 89°
2026-04-26 06:41 45.22527 9.21720 5839 ft 227 kts 79°
2026-04-26 06:41 45.22691 9.23932 5442 ft 225 kts 84°
2026-04-26 06:41 45.22789 9.26135 5046 ft 223 kts 85°
2026-04-26 06:42 45.23180 9.28217 4643 ft 219 kts 55°
2026-04-26 06:42 45.24326 9.29556 4215 ft 216 kts 19°
2026-04-26 06:42 45.25806 9.29720 3820 ft 214 kts 354°
2026-04-26 06:42 45.27282 9.29555 3511 ft 211 kts 354°
2026-04-26 06:43 45.28724 9.29402 3258 ft 205 kts 355°
2026-04-26 06:43 45.30120 9.29253 2961 ft 196 kts 354°
2026-04-26 06:43 45.31443 9.29111 2710 ft 186 kts 354°
2026-04-26 06:43 45.32698 9.28977 2472 ft 177 kts 353°
2026-04-26 06:44 45.33905 9.28848 2242 ft 171 kts 353°
2026-04-26 06:44 45.35077 9.28722 2018 ft 168 kts 353°
2026-04-26 06:44 45.36240 9.28596 1796 ft 166 kts 353°
2026-04-26 06:44 45.37360 9.28477 1577 ft 158 kts 352°
2026-04-26 06:45 45.38415 9.28364 1367 ft 151 kts 353°
2026-04-26 06:45 45.39436 9.28254 1170 ft 144 kts 353°
2026-04-26 06:45 45.40425 9.28147 987 ft 140 kts 354°
2026-04-26 06:45 45.41392 9.28043 793 ft 139 kts 354°
2026-04-26 06:46 45.42349 9.27939 603 ft 138 kts 354°
2026-04-26 06:46 45.43301 9.27835 428 ft 137 kts 354°
2026-04-26 06:46 45.44210 9.27741 361 ft 121 kts 354°
2026-04-26 06:46 45.44886 9.27667 364 ft 73 kts 355°
2026-04-26 06:47 45.45226 9.27636 358 ft 33 kts
2026-04-26 06:47 45.45390 9.27717 361 ft 18 kts 27°
2026-04-26 06:47 45.45467 9.27801 360 ft 11 kts 41°
2026-04-26 06:47 45.45541 9.27814 363 ft 11 kts
2026-04-26 06:48 45.45615 9.27816 363 ft 11 kts
2026-04-26 06:48 45.45695 9.27816 360 ft 11 kts
2026-04-26 06:48 45.45733 9.27833 363 ft 5 kts 61°
2026-04-26 06:48 45.45735 9.27884 360 ft 4 kts 90°
2026-04-26 06:49 45.45735 9.27894 360 ft 0 kts 90°